FREGAT DEB, 45638

Orbit data source: Space-Track

FREGAT DEB, 45638 is space debris in LEO originally from a launch on Mon, 18 Jul 2011 UTC launched from the Tyuratam Missile And Space Complex (TTMTR). Debris objects in space refer to the collection of defunct objects orbiting the Earth. Examples of debris include non-operational satellites, rocket bodies, and fragments generated from explosions, collisions, or faulty payload assembly.

Loading next visibility...
Identifier
45638, 2011-037AE
Orbit
LEO
Country
Flag of CISCIS
Related business
Manufacturer
Lavochkin
Mission
Spacecraft
Bus & Motor
Unknown
Mass
Unknown
Launch date (UTC)
2011-07-18 (14 years ago)
Launch vehicle
Unknown
Launch site
Tyuratam Missile And Space Complex (TTMTR)
Object type
Payload
Rocket body
Debris
Shape & HBR
Unknown shape, 0.1 m
Radar Cross Section
Small (<0.1 m²)

Expand to show TLE details & history
Last TLE update: 7 hours ago

TLE from 7 hours ago
0 FREGAT DEB
1 45638U 11037AE  25289.17932468  .00063445  00000-0  42834-2 0  9999
2 45638  51.4088 252.0006 1231204 268.6428  77.3458 12.90114176233552
Epoch: 2025-10-16T04:18Z
TLE epoch observation values (Epoch: 2025-10-16T04:18:13.652Z)
Latitude
-0.00004°
Longitude
162.50092°
Altitude
1,208.892 km
Speed
7.294 km/s
True Right ascension
16h 48m 00s
True Declination
0° 00' 00"
Sunlit
Object was in daylight at epoch
Visualization orbit readout
Latitude
Unknown
Longitude
Unknown
Altitude
Unknown
Speed
Unknown
Apparent Right ascension
Unknown
Apparent Declination
Unknown
Sunlit
N/A
Visualization observer readout
Local Sidereal Time
05:42:33
Azimuth
Unknown
Elevation
Unknown
Doppler factor
Unknown
Orbital elements
Apogee altitude
2,247.094 km
Perigee altitude
356.038 km
Semi-major axis
7,679.703 km
Eccentricity
0.12312
Inclination
51.4088°
RAAN
252.0006°
Arg. of periapsis
268.6428°
True anomaly
91.447°
Mean anomaly
77.3458°
Eccentric anomaly
84.366°
Mean motion
3.22498 °/min
Orbital period
111.63 mins
BSTAR
0.0042834
Loading maneuver chart data...
Computing Atmospheric mass density...
Loading historical data...
Loading historical data...
Loading historical data...
Loading historical data...
Loading historical data...
Loading historical data...
Loading historical data...

Documentation

Showing up to 5 results
|